• In Russia
  • List of Countries
  • For 7 days
  • Water Temperature
  • Satellite Maps
  • Weather Map
  • Weather Widgets
  • user-avatar
    Login

    Hourly Weather Lubumbashi

    Today, 17 June, Monday

    Time Temperature Precipitation Wind Pressure Humidity
    00:00 +34°C° 0 mm 4 mps 720 mmHg 45%
    01:00 +33°C° 0 mm 5 mps 719 mmHg 53%
    02:00 +32°C° 0 mm 6 mps 719 mmHg 61%
    03:00 +30°C° 0 mm 6 mps 719 mmHg 60%
    04:00 +30°C° 0 mm 5 mps 719 mmHg 59%
    05:00 +30°C° 0 mm 4 mps 719 mmHg 58%
    06:00 +30°C° 0 mm 4 mps 720 mmHg 56%
    07:00 +30°C° 0 mm 3 mps 721 mmHg 55%
    08:00 +30°C° 0 mm 3 mps 721 mmHg 53%
    09:00 +31°C° 0 mm 3 mps 721 mmHg 50%
    10:00 +32°C° 0 mm 2 mps 722 mmHg 47%
    11:00 +32°C° 0 mm 2 mps 722 mmHg 44%
    12:00 +34°C° 0 mm 3 mps 721 mmHg 43%
    13:00 +35°C° 0 mm 3 mps 721 mmHg 42%
    14:00 +35°C° 0 mm 4 mps 720 mmHg 41%
    15:00 +35°C° 0 mm 4 mps 720 mmHg 40%
    16:00 +36°C° 0 mm 3 mps 720 mmHg 40%
    17:00 +36°C° 0 mm 3 mps 719 mmHg 39%
    18:00 +35°C° 0 mm 4 mps 720 mmHg 42%
    19:00 +35°C° 0 mm 4 mps 720 mmHg 44%
    20:00 +34°C° 0 mm 4 mps 720 mmHg 47%
    21:00 +34°C° 0 mm 4 mps 721 mmHg 48%
    22:00 +33°C° 0 mm 4 mps 721 mmHg 49%
    23:00 +33°C° 0 mm 4 mps 722 mmHg 49%

    Tomorrow, 18 June, Tuesday

    Time Temperature Precipitation Wind Pressure Humidity
    00:00 +33°C° 0 mm 4 mps 721 mmHg 53%
    01:00 +32°C° 0 mm 5 mps 721 mmHg 56%
    02:00 +32°C° 0 mm 5 mps 720 mmHg 59%
    03:00 +30°C° 0 mm 5 mps 720 mmHg 61%
    04:00 +30°C° 0 mm 5 mps 721 mmHg 63%
    05:00 +29°C° 0 mm 5 mps 721 mmHg 65%
    06:00 +29°C° 0 mm 5 mps 721 mmHg 63%
    07:00 +30°C° 0 mm 4 mps 722 mmHg 62%
    08:00 +30°C° 0 mm 4 mps 723 mmHg 61%
    09:00 +32°C° 0 mm 4 mps 723 mmHg 57%
    10:00 +33°C° 0 mm 4 mps 723 mmHg 53%
    11:00 +34°C° 0 mm 4 mps 723 mmHg 49%
    12:00 +35°C° 0 mm 4 mps 722 mmHg 45%
    13:00 +36°C° 0 mm 4 mps 722 mmHg 41%
    14:00 +37°C° 0 mm 4 mps 722 mmHg 37%
    15:00 +37°C° 0 mm 3 mps 721 mmHg 36%
    16:00 +38°C° 0 mm 3 mps 721 mmHg 36%
    17:00 +38°C° 0 mm 3 mps 720 mmHg 35%
    18:00 +37°C° 0 mm 3 mps 720 mmHg 37%
    19:00 +37°C° 0 mm 4 mps 721 mmHg 39%
    20:00 +36°C° 0 mm 5 mps 721 mmHg 41%
    21:00 +35°C° 0 mm 5 mps 721 mmHg 44%
    22:00 +35°C° 0 mm 4 mps 721 mmHg 48%
    23:00 +34°C° 0 mm 4 mps 721 mmHg 51%

    Day after tomorrow, 19 June, Wednesday

    Time Temperature Precipitation Wind Pressure Humidity
    00:00 +33°C° 0 mm 4 mps 721 mmHg 53%
    01:00 +33°C° 0 mm 4 mps 720 mmHg 55%
    02:00 +32°C° 0 mm 4 mps 720 mmHg 56%
    03:00 +32°C° 0 mm 4 mps 720 mmHg 58%
    04:00 +30°C° 0 mm 4 mps 720 mmHg 60%
    05:00 +30°C° 0 mm 4 mps 720 mmHg 62%
    06:00 +30°C° 0 mm 4 mps 720 mmHg 61%
    07:00 +30°C° 0 mm 4 mps 721 mmHg 60%
    08:00 +32°C° 0 mm 5 mps 722 mmHg 58%
    09:00 +33°C° 0 mm 4 mps 722 mmHg 53%
    10:00 +34°C° 0 mm 4 mps 722 mmHg 48%
    11:00 +35°C° 0 mm 4 mps 722 mmHg 43%
    12:00 +36°C° 0 mm 3 mps 721 mmHg 40%
    13:00 +37°C° 0 mm 3 mps 721 mmHg 36%
    14:00 +38°C° 0 mm 2 mps 720 mmHg 33%
    15:00 +38°C° 0 mm 2 mps 720 mmHg 32%
    16:00 +39°C° 0 mm 1 mps 719 mmHg 30%
    17:00 +36°C° 0 mm 0 mps 719 mmHg 28%
    18:00 +39°C° 0 mm 1 mps 719 mmHg 29%
    19:00 +39°C° 0 mm 1 mps 719 mmHg 29%
    20:00 +38°C° 0 mm 2 mps 720 mmHg 29%
    21:00 +37°C° 0 mm 3 mps 720 mmHg 32%
    22:00 +37°C° 0 mm 4 mps 720 mmHg 36%
    23:00 +36°C° 0 mm 6 mps 720 mmHg 39%

    20 June, Thursday

    Time Temperature Precipitation Wind Pressure Humidity
    00:00 +35°C° 0 mm 5 mps 720 mmHg 41%
    01:00 +34°C° 0 mm 5 mps 719 mmHg 43%
    02:00 +34°C° 0 mm 5 mps 719 mmHg 45%
    03:00 +33°C° 0 mm 5 mps 719 mmHg 46%
    04:00 +33°C° 0 mm 5 mps 719 mmHg 48%
    05:00 +32°C° 0 mm 5 mps 719 mmHg 50%
    06:00 +33°C° 0 mm 5 mps 720 mmHg 51%
    07:00 +33°C° 0 mm 5 mps 720 mmHg 51%
    08:00 +33°C° 0 mm 5 mps 721 mmHg 52%
    09:00 +34°C° 0 mm 5 mps 721 mmHg 49%
    10:00 +35°C° 0 mm 5 mps 721 mmHg 45%
    11:00 +36°C° 0 mm 5 mps 721 mmHg 41%
    12:00 +37°C° 0 mm 5 mps 720 mmHg 38%
    13:00 +38°C° 0 mm 4 mps 720 mmHg 35%
    14:00 +39°C° 0 mm 3 mps 719 mmHg 32%
    15:00 +39°C° 0 mm 3 mps 719 mmHg 31%
    16:00 +39°C° 0 mm 2 mps 719 mmHg 30%
    17:00 +40°C° 0 mm 2 mps 718 mmHg 28%
    18:00 +39°C° 0 mm 3 mps 718 mmHg 31%
    19:00 +39°C° 0 mm 5 mps 719 mmHg 33%
    20:00 +38°C° 0 mm 6 mps 719 mmHg 36%
    21:00 +36°C° 0 mm 7 mps 719 mmHg 39%
    22:00 +35°C° 0 mm 7 mps 719 mmHg 41%
    23:00 +35°C° 0 mm 8 mps 720 mmHg 44%

    21 June, Friday

    Time Temperature Precipitation Wind Pressure Humidity
    00:00 +34°C° 0 mm 7 mps 719 mmHg 46%
    01:00 +34°C° 0 mm 7 mps 719 mmHg 48%
    02:00 +33°C° 0 mm 6 mps 719 mmHg 50%
    03:00 +33°C° 0 mm 6 mps 719 mmHg 51%
    04:00 +32°C° 0 mm 6 mps 719 mmHg 53%
    05:00 +32°C° 0 mm 6 mps 719 mmHg 54%
    06:00 +32°C° 0 mm 6 mps 719 mmHg 54%
    07:00 +32°C° 0 mm 6 mps 720 mmHg 54%
    08:00 +33°C° 0 mm 6 mps 720 mmHg 55%
    09:00 +34°C° 0 mm 5 mps 720 mmHg 50%
    10:00 +35°C° 0 mm 5 mps 720 mmHg 45%
    11:00 +37°C° 0 mm 5 mps 720 mmHg 40%
    12:00 +39°C° 0 mm 5 mps 720 mmHg 38%
    13:00 +39°C° 0 mm 5 mps 719 mmHg 35%
    14:00 +40°C° 0 mm 4 mps 719 mmHg 32%
    15:00 +40°C° 0 mm 3 mps 718 mmHg 31%
    16:00 +40°C° 0 mm 3 mps 718 mmHg 29%
    17:00 +40°C° 0 mm 2 mps 717 mmHg 28%
    18:00 +40°C° 0.1 mm 2 mps 717 mmHg 28%
    19:00 +39°C° 0.1 mm 2 mps 717 mmHg 28%
    20:00 +39°C° 0.1 mm 2 mps 717 mmHg 29%
    21:00 +38°C° 0 mm 3 mps 718 mmHg 31%
    22:00 +39°C° 0 mm 5 mps 718 mmHg 33%
    23:00 +38°C° 0 mm 6 mps 718 mmHg 35%

    22 June, Saturday

    Time Temperature Precipitation Wind Pressure Humidity
    00:00 +36°C° 0 mm 7 mps 718 mmHg 39%
    01:00 +35°C° 0 mm 7 mps 718 mmHg 43%
    02:00 +34°C° 0 mm 8 mps 718 mmHg 47%
    03:00 +33°C° 0 mm 7 mps 718 mmHg 50%
    04:00 +33°C° 0 mm 7 mps 718 mmHg 53%
    05:00 +32°C° 0 mm 6 mps 718 mmHg 56%
    06:00 +32°C° 0 mm 6 mps 719 mmHg 54%
    07:00 +32°C° 0 mm 6 mps 719 mmHg 53%
    08:00 +33°C° 0 mm 5 mps 720 mmHg 51%
    09:00 +34°C° 0 mm 6 mps 720 mmHg 46%
    10:00 +36°C° 0 mm 6 mps 720 mmHg 40%
    11:00 +39°C° 0 mm 7 mps 720 mmHg 35%
    12:00 +39°C° 0 mm 7 mps 719 mmHg 33%
    13:00 +40°C° 0 mm 6 mps 719 mmHg 30%
    14:00 +41°C° 0 mm 6 mps 718 mmHg 28%
    15:00 +41°C° 0 mm 6 mps 718 mmHg 28%
    16:00 +41°C° 0 mm 5 mps 717 mmHg 27%
    17:00 +41°C° 0 mm 4 mps 717 mmHg 27%
    18:00 +41°C° 0 mm 4 mps 717 mmHg 29%
    19:00 +40°C° 0 mm 5 mps 717 mmHg 30%
    20:00 +39°C° 0 mm 5 mps 717 mmHg 32%
    21:00 +39°C° 0 mm 5 mps 718 mmHg 33%
    22:00 +37°C° 0 mm 5 mps 718 mmHg 35%
    23:00 +36°C° 0 mm 6 mps 718 mmHg 37%
    Show more